Location: Saratoga Springs
(43.0831°N, 73.7850°W)
Time: 17:23:46
(UTC-04:00)

Tiros 1 despin weight - Pass Details

Date: 22 April 2024
Orbit: 578 x 620 km, 48.2° (Epoch: 29 May)

Event Time Altitude Azimuth Distance (km) Brightness Sun altitude
Rises 17:43:19 0° 294° (WNW) 2,864 ? 21.3°
Reaches altitude 10° 17:45:36 10° 295° (WNW) 1,965 ? 20.9°
Maximum altitude 17:50:08 88° 206° (SSW) 620 ? 20.1°
Drops below altitude 10° 17:54:42 10° 118° (ESE) 1,978 ? 19.3°
Sets 17:57:01 0° 118° (ESE) 2,884 ? 18.8°
